This is the latest recevied weather packets stored in our database for station/object K6JWN. If no packets are shown the sender has not sent any weather packets the latest 10 day(s).
| Time | Temp. | Humidity | Pressure | Rain* | Wind** | Luminosity | Snow |
|---|---|---|---|---|---|---|---|
| 1778178557 | 21.67° C | 62% | 1017.7 hPa | 0 mm | - | - | - |
| 1778177957 | 21.11° C | 62% | 1017.6 hPa | 0 mm | - | - | - |
| 1778177357 | 20.56° C | 63% | 1017.7 hPa | 0 mm | - | - | - |
| 1778176757 | 20.56° C | 63% | 1017.8 hPa | 0 mm | - | - | - |
| 1778176157 | 20° C | 66% | 1017.8 hPa | 0 mm | - | - | - |
| 1778175557 | 19.44° C | 67% | 1017.8 hPa | 0 mm | - | - | - |
| 1778174957 | 19.44° C | 68% | 1018 hPa | 0 mm | - | - | - |
| 1778174357 | 18.33° C | 68% | 1017.9 hPa | 0 mm | - | - | - |
| 1778173757 | 18.33° C | 66% | 1017.9 hPa | 0 mm | - | - | - |
| 1778173157 | 17.78° C | 72% | 1018 hPa | 0 mm | - | - | - |
| 1778172557 | 17.22° C | 72% | 1018 hPa | 0 mm | - | - | - |
| 1778171957 | 16.67° C | 73% | 1017.9 hPa | 0 mm | - | - | - |
| 1778171357 | 16.67° C | 74% | 1018 hPa | 0 mm | - | - | - |
| 1778170757 | 15.56° C | 75% | 1018 hPa | 0 mm | - | - | - |
| 1778170157 | 15° C | 78% | 1018.1 hPa | 0 mm | - | - | - |
| 1778169557 | 14.44° C | 79% | 1018.2 hPa | 0 mm | - | - | - |
| 1778168957 | 13.89° C | 82% | 1018.2 hPa | 0 mm | - | - | - |
| 1778168357 | 13.33° C | 83% | 1018.3 hPa | 0 mm | - | - | - |
| 1778167757 | 12.78° C | 82% | 1018.3 hPa | 0 mm | - | - | - |
| 1778167157 | 12.78° C | 82% | 1018.3 hPa | 0 mm | - | - | - |
| 1778166557 | 13.33° C | 80% | 1018.2 hPa | 0 mm | - | - | - |
| 1778165956 | 13.33° C | 80% | 1018.3 hPa | 0 mm | - | - | - |
| 1778165356 | 13.33° C | 80% | 1018.4 hPa | 0 mm | - | - | - |
| 1778164757 | 12.78° C | 81% | 1018.2 hPa | 0 mm | - | - | - |
| 1778164157 | 12.78° C | 82% | 1018.1 hPa | 0 mm | - | - | - |
* Rain latest hour (hover to see other rain measurements)
** Current wind speed in m/s (hover to see current wind gust speed)